When you browse on this site, cookies collect data to enhance your experience and personalize the content and advertising you see.
Visit our Privacy Policy to learn more. By continuing to use the site, you agree to this use of cookies and data.
EN

Hourly Weather Koprivnice

Today, 8 July, Wednesday

Time Temperature Precipitation Wind Pressure Humidity
00:00 +11°C° 0 mm 1 mps 731 mmHg 88%
01:00 +10°C° 0 mm 2 mps 731 mmHg 88%
02:00 +10°C° 0 mm 2 mps 731 mmHg 87%
03:00 +10°C° 0 mm 2 mps 731 mmHg 87%
04:00 +9°C° 0 mm 2 mps 731 mmHg 87%
05:00 +12°C° 0 mm 2 mps 731 mmHg 83%
06:00 +13°C° 0 mm 2 mps 731 mmHg 79%
07:00 +15°C° 0 mm 2 mps 731 mmHg 75%
08:00 +16°C° 0 mm 3 mps 731 mmHg 71%
09:00 +18°C° 0 mm 4 mps 731 mmHg 67%
10:00 +19°C° 0 mm 4 mps 732 mmHg 62%
11:00 +19°C° 0.1 mm 4 mps 731 mmHg 63%
12:00 +20°C° 0.1 mm 4 mps 731 mmHg 63%
13:00 +20°C° 0.1 mm 4 mps 731 mmHg 63%
14:00 +19°C° 0.1 mm 3 mps 731 mmHg 70%
15:00 +18°C° 0.1 mm 2 mps 731 mmHg 77%
16:00 +17°C° 0.1 mm 2 mps 730 mmHg 84%
17:00 +16°C° 1 mm 2 mps 730 mmHg 88%
18:00 +15°C° 1 mm 2 mps 730 mmHg 92%
19:00 +14°C° 1 mm 2 mps 730 mmHg 96%
20:00 +14°C° 1.6 mm 2 mps 731 mmHg 96%
21:00 +14°C° 1.6 mm 2 mps 731 mmHg 96%
22:00 +14°C° 1.6 mm 1 mps 731 mmHg 97%
23:00 +14°C° 0.2 mm 1 mps 731 mmHg 97%

Tomorrow, 9 July, Thursday

Time Temperature Precipitation Wind Pressure Humidity
00:00 +14°C° 0.2 mm 1 mps 731 mmHg 97%
01:00 +13°C° 0.2 mm 1 mps 732 mmHg 97%
02:00 +13°C° 0.1 mm 1 mps 732 mmHg 97%
03:00 +12°C° 0.1 mm 0 mps 732 mmHg 97%
04:00 +12°C° 0.1 mm 0 mps 732 mmHg 97%
05:00 +12°C° 0 mm 0 mps 732 mmHg 94%
06:00 +13°C° 0 mm 0 mps 732 mmHg 91%
07:00 +14°C° 0 mm 0 mps 732 mmHg 88%
08:00 +18°C° 0 mm 1 mps 733 mmHg 80%
09:00 +18°C° 0 mm 2 mps 733 mmHg 72%
10:00 +20°C° 0 mm 2 mps 733 mmHg 64%
11:00 +20°C° 0 mm 2 mps 733 mmHg 66%
12:00 +20°C° 0 mm 3 mps 733 mmHg 68%
13:00 +19°C° 0 mm 3 mps 732 mmHg 70%
14:00 +20°C° 0 mm 3 mps 732 mmHg 70%
15:00 +21°C° 0 mm 3 mps 732 mmHg 69%
16:00 +22°C° 0 mm 3 mps 731 mmHg 69%
17:00 +21°C° 0 mm 3 mps 731 mmHg 74%
18:00 +20°C° 0 mm 2 mps 731 mmHg 79%
19:00 +20°C° 0 mm 1 mps 730 mmHg 85%
20:00 +19°C° 0.3 mm 1 mps 731 mmHg 87%
21:00 +19°C° 0.3 mm 1 mps 731 mmHg 90%
22:00 +17°C° 0.3 mm 2 mps 731 mmHg 92%
23:00 +18°C° 0.2 mm 1 mps 731 mmHg 93%

Day after tomorrow, 10 July, Friday

Time Temperature Precipitation Wind Pressure Humidity
00:00 +18°C° 0.2 mm 1 mps 730 mmHg 93%
01:00 +18°C° 0.2 mm 1 mps 730 mmHg 93%
02:00 +17°C° 0.2 mm 2 mps 730 mmHg 93%
03:00 +16°C° 0.2 mm 2 mps 730 mmHg 93%
04:00 +16°C° 0.2 mm 2 mps 730 mmHg 94%
05:00 +17°C° 0 mm 2 mps 730 mmHg 91%
06:00 +19°C° 0 mm 3 mps 730 mmHg 87%
07:00 +20°C° 0 mm 3 mps 730 mmHg 84%
08:00 +22°C° 0 mm 3 mps 730 mmHg 77%
09:00 +25°C° 0 mm 4 mps 730 mmHg 70%
10:00 +26°C° 0 mm 5 mps 730 mmHg 63%
11:00 +27°C° 0 mm 5 mps 730 mmHg 60%
12:00 +28°C° 0 mm 6 mps 730 mmHg 57%
13:00 +29°C° 0 mm 6 mps 729 mmHg 54%
14:00 +28°C° 0 mm 6 mps 729 mmHg 56%
15:00 +28°C° 0 mm 5 mps 729 mmHg 57%
16:00 +28°C° 0 mm 5 mps 728 mmHg 58%
17:00 +27°C° 0 mm 5 mps 728 mmHg 63%
18:00 +26°C° 0 mm 4 mps 728 mmHg 67%
19:00 +23°C° 0 mm 4 mps 728 mmHg 71%
20:00 +23°C° 0 mm 4 mps 728 mmHg 72%
21:00 +22°C° 0 mm 4 mps 728 mmHg 73%
22:00 +21°C° 0 mm 4 mps 728 mmHg 73%
23:00 +20°C° 0.4 mm 3 mps 728 mmHg 80%

11 July, Saturday

Time Temperature Precipitation Wind Pressure Humidity
00:00 +19°C° 0.4 mm 2 mps 729 mmHg 87%
01:00 +19°C° 0.4 mm 1 mps 729 mmHg 93%
02:00 +19°C° 0.6 mm 1 mps 729 mmHg 94%
03:00 +19°C° 0.6 mm 1 mps 729 mmHg 95%
04:00 +19°C° 0.6 mm 1 mps 729 mmHg 96%
05:00 +19°C° 0.5 mm 1 mps 729 mmHg 96%
06:00 +18°C° 0.5 mm 2 mps 730 mmHg 95%
07:00 +18°C° 0.5 mm 2 mps 730 mmHg 95%
08:00 +17°C° 0.5 mm 3 mps 730 mmHg 95%
09:00 +17°C° 0.5 mm 3 mps 730 mmHg 95%
10:00 +15°C° 0.5 mm 4 mps 731 mmHg 94%
11:00 +15°C° 1.3 mm 4 mps 731 mmHg 95%
12:00 +14°C° 1.3 mm 4 mps 731 mmHg 95%
13:00 +14°C° 1.3 mm 4 mps 731 mmHg 95%
14:00 +13°C° 5.2 mm 4 mps 731 mmHg 96%
15:00 +13°C° 5.2 mm 4 mps 732 mmHg 96%
16:00 +13°C° 5.2 mm 3 mps 732 mmHg 97%
17:00 +13°C° 2.7 mm 3 mps 732 mmHg 97%
18:00 +14°C° 2.7 mm 2 mps 733 mmHg 96%
19:00 +14°C° 2.7 mm 1 mps 733 mmHg 96%
20:00 +14°C° 0.4 mm 2 mps 733 mmHg 96%
21:00 +13°C° 0.4 mm 2 mps 733 mmHg 95%
22:00 +13°C° 0.4 mm 2 mps 734 mmHg 94%
23:00 +12°C° 0 mm 2 mps 734 mmHg 94%

12 July, Sunday

Time Temperature Precipitation Wind Pressure Humidity
00:00 +12°C° 0 mm 2 mps 734 mmHg 94%
01:00 +11°C° 0 mm 1 mps 734 mmHg 94%
02:00 +11°C° 0 mm 1 mps 734 mmHg 93%
03:00 +10°C° 0 mm 1 mps 734 mmHg 93%
04:00 +10°C° 0 mm 1 mps 734 mmHg 93%
05:00 +11°C° 0 mm 1 mps 734 mmHg 90%
06:00 +12°C° 0 mm 2 mps 735 mmHg 87%
07:00 +14°C° 0 mm 2 mps 735 mmHg 85%
08:00 +14°C° 0.1 mm 3 mps 735 mmHg 79%
09:00 +16°C° 0.1 mm 3 mps 735 mmHg 74%
10:00 +17°C° 0.1 mm 3 mps 736 mmHg 68%
11:00 +18°C° 0.1 mm 3 mps 736 mmHg 65%
12:00 +18°C° 0.1 mm 3 mps 736 mmHg 62%
13:00 +19°C° 0.1 mm 3 mps 736 mmHg 59%
14:00 +19°C° 0.1 mm 3 mps 735 mmHg 59%
15:00 +19°C° 0.1 mm 3 mps 735 mmHg 58%
16:00 +19°C° 0.1 mm 3 mps 735 mmHg 58%
17:00 +18°C° 0.1 mm 3 mps 735 mmHg 64%
18:00 +16°C° 0.1 mm 2 mps 735 mmHg 71%
19:00 +15°C° 0.1 mm 2 mps 735 mmHg 77%
20:00 +14°C° 0 mm 1 mps 735 mmHg 78%
21:00 +13°C° 0 mm 1 mps 736 mmHg 80%
22:00 +12°C° 0 mm 1 mps 736 mmHg 81%
23:00 +11°C° 0 mm 1 mps 736 mmHg 83%

13 July, Monday

Time Temperature Precipitation Wind Pressure Humidity
00:00 +11°C° 0 mm 1 mps 736 mmHg 84%
01:00 +9°C° 0 mm 0 mps 736 mmHg 85%
02:00 +9°C° 0 mm 0 mps 735 mmHg 86%
03:00 +9°C° 0 mm 0 mps 735 mmHg 86%
04:00 +8°C° 0 mm 0 mps 735 mmHg 87%
05:00 +10°C° 0 mm 0 mps 735 mmHg 81%
06:00 +12°C° 0 mm 0 mps 735 mmHg 75%
07:00 +14°C° 0 mm 0 mps 735 mmHg 69%
08:00 +16°C° 0 mm 1 mps 735 mmHg 64%
09:00 +19°C° 0 mm 1 mps 736 mmHg 58%
10:00 +20°C° 0 mm 1 mps 736 mmHg 52%
11:00 +20°C° 0 mm 1 mps 735 mmHg 51%
12:00 +20°C° 0 mm 2 mps 735 mmHg 50%
13:00 +20°C° 0 mm 2 mps 735 mmHg 49%
14:00 +20°C° 0 mm 2 mps 734 mmHg 50%
15:00 +20°C° 0 mm 2 mps 734 mmHg 52%
16:00 +20°C° 0 mm 2 mps 734 mmHg 53%
17:00 +19°C° 0 mm 2 mps 733 mmHg 60%
18:00 +18°C° 0 mm 2 mps 733 mmHg 67%
19:00 +16°C° 0 mm 1 mps 733 mmHg 74%
20:00 +15°C° 0 mm 1 mps 733 mmHg 76%
21:00 +14°C° 0 mm 1 mps 733 mmHg 78%
22:00 +13°C° 0 mm 1 mps 733 mmHg 80%
23:00 +12°C° 0 mm 1 mps 733 mmHg 81%
Show more